This is the latest recevied weather packets stored in our database for station/object K1RFS. If no packets are shown the sender has not sent any weather packets the latest 10 day(s).
| Time | Temp. | Humidity | Pressure | Rain* | Wind** | Luminosity | Snow |
|---|---|---|---|---|---|---|---|
| 1777751768 | 23.89° C | 15% | 1004.6 hPa | 0 mm | - | 626 W/m² | - |
| 1777751463 | 23.89° C | 15% | 1004.8 hPa | 0 mm | - | 641 W/m² | - |
| 1777751160 | 23.89° C | 15% | 1004.7 hPa | 0 mm | - | 650 W/m² | - |
| 1777750856 | 22.78° C | 15% | 1004.9 hPa | 0 mm | - | 651 W/m² | - |
| 1777750553 | 22.22° C | 16% | 1004.8 hPa | 0 mm | - | 685 W/m² | - |
| 1777750250 | 23.33° C | 15% | 1005 hPa | 0 mm | - | 646 W/m² | - |
| 1777749945 | 22.78° C | 15% | 1005.2 hPa | 0 mm | - | 654 W/m² | - |
| 1777749643 | 22.78° C | 15% | 1005 hPa | 0 mm | - | 616 W/m² | - |
| 1777749340 | 22.78° C | 16% | 1005.2 hPa | 0 mm | - | 670 W/m² | - |
| 1777749038 | 22.22° C | 16% | 1005.3 hPa | 0 mm | - | 671 W/m² | - |
| 1777748735 | 21.67° C | 16% | 1005.3 hPa | 0 mm | - | 668 W/m² | - |
| 1777748432 | 22.78° C | 16% | 1005.4 hPa | 0 mm | - | 662 W/m² | - |
| 1777748127 | 22.22° C | 15% | 1005.3 hPa | 0 mm | - | 644 W/m² | - |
| 1777747824 | 21.67° C | 16% | 1005.5 hPa | 0 mm | - | 649 W/m² | - |
| 1777747520 | 21.67° C | 15% | 1005.4 hPa | 0 mm | - | 632 W/m² | - |
| 1777747216 | 21.67° C | 16% | 1005.6 hPa | 0 mm | - | 636 W/m² | - |
| 1777746912 | 21.11° C | 16% | 1005.6 hPa | 0 mm | - | 640 W/m² | - |
| 1777746608 | 21.11° C | 16% | 1005.7 hPa | 0 mm | - | 635 W/m² | - |
| 1777746303 | 20.56° C | 16% | 1005.6 hPa | 0 mm | - | 631 W/m² | - |
| 1777746000 | 20.56° C | 16% | 1005.8 hPa | 0 mm | - | 540 W/m² | - |
| 1777745698 | 20.56° C | 15% | 1005.7 hPa | 0 mm | - | 585 W/m² | - |
| 1777745396 | 20.56° C | 15% | 1005.8 hPa | 0 mm | - | 606 W/m² | - |
| 1777745093 | 20.56° C | 15% | 1006 hPa | 0 mm | - | 602 W/m² | - |
| 1777744789 | 20° C | 15% | 1006 hPa | 0 mm | - | 592 W/m² | - |
| 1777744484 | 20° C | 15% | 1006.1 hPa | 0 mm | - | 600 W/m² | - |
* Rain latest hour (hover to see other rain measurements)
** Current wind speed in m/s (hover to see current wind gust speed)